Hourly Weather Roundup
Issued by NWS Central Illinois

Home | Current Version | Previous Version | Text Only | Print | Product List | Glossary On
Versions: 1 2 3 4 5 6 7 8 9 10 11 12 13 14 15 16 17 18 19 20 21 22 23 24 25 26 27 28 29 30 31 32 33 34 35 36 37 38 39 40 41 42 43 44 45 46 47 48 49 50
000
NZUS43 KILX 211010
HWRILX

Area Weather Roundup
National Weather Service Lincoln IL
500 AM CDT WED JUN 21 2017

NOTE:  "FAIR" indicates few or no clouds below 12,000 feet, with
       no sigificant weather and/or obstructions to visibility.


CITY           SKY/WX    TMP DP  RH WIND       PRES   REMARKS
Bloomington    CLEAR     61  60  97 NE8       29.94
Champaign      CLEAR     64  61  90 NE6       29.93R
Danville       PTCLDY    63  61  95 CALM      29.92R
Decatur        CLEAR     65  63  93 S7        29.92R
Effingham      CLEAR     68  62  79 SE3       29.95S
Flora          CLOUDY    66  64  93 CALM      29.95S
Galesburg      MOCLDY    62  58  86 NE5       29.95R
Jacksonville   CLEAR     66  65  94 CALM      29.91S
Lacon          CLEAR     58  58  99 CALM      29.94S FOG
Lawrenceville  CLOUDY    68  61  78 S5        29.95R
Litchfield     CLEAR     67  65  94 S5        29.93R
$$


CITY           SKY/WX    TMP DP  RH WIND       PRES   REMARKS
Lincoln        CLEAR     64  64 100 NE3       29.92S
Macomb         CLEAR     64  63  96 NE6       29.95R
Mattoon        CLEAR     68  63  84 S8        29.92R
Mt Carmel AP   CLOUDY    72  58  62 SW7       29.95R
Olney-Noble AP CLEAR     69  63  82 S5        29.95S
Paris AP       CLEAR     65  62  88 S6        29.94R
Peoria         CLEAR     64  62  93 NE3       29.93R
Pontiac        CLEAR     62  61  98 NE6       29.95S FOG
Rantoul        CLEAR     65  63  94 E5        29.94R
Robinson       CLEAR     64  61  91 CALM      29.95S
Springfield    CLEAR     67  66  97 S3        29.91R
Taylorville    CLEAR     66  64  93 CALM      29.93R
$$

...REGIONAL REPORTS...


CITY           SKY/WX    TMP DP  RH WIND       PRES   REMARKS
Chicago O`Hare PTCLDY    57  53  86 CALM      29.95S
Kankakee       CLEAR     59  58  97 E3        29.96R
Moline         MOCLDY    59  55  87 E5        29.94R
Mount Sterling CLEAR     65  64  97 CALM      29.92R
Mount Vernon   CLEAR     67  61  81 SW3       29.96R
Pittsfield     CLEAR     71  66  85 CALM      29.93R
Quincy         CLEAR     66  64  93 NE7       29.91R
Rockford       PTCLDY    55  52  89 CALM      29.97S
$$


CITY           SKY/WX    TMP DP  RH WIND       PRES   REMARKS
Burlington     CLEAR     66  56  70 NE7       29.93R
Cedar Rapids   CLOUDY    59  59 100 E7        29.94F
Des Moines     PTCLDY    67  59  75 SE9       29.90F
Kirksville     CLEAR     65  61  87 E6        29.93R
Ottumwa        CLEAR     63  60  90 SE6       29.93R
St Louis       PTCLDY    77  63  61 W6        29.93R
$$


CITY           SKY/WX    TMP DP  RH WIND       PRES   REMARKS
Terre Haute    CLEAR     65  60  84 CALM      29.94R
Evansville     CLOUDY    71  62  73 CALM      29.97R
Indianapolis   LGT RAIN  66  63  90 N9        29.95S
Lafayette      MOCLDY    61  60  97 E6        29.94S FOG
Madison        CLEAR     52  51  97 CALM      29.96S
Milwaukee      PTCLDY    59  55  87 W3        29.96S
$$






USA.gov is the U.S. government's official web portal to all federal, state and local government web resources and services.